Hourly Data Report for July 18, 2021

TORONTO CITY CENTRE
ONTARIO
Current Station Operator: NAVCAN

43°37'39.000" N
79°23'46.000" W
76.80 m
6158359
71265
YTZ

Download Data

Hourly Data (July 2021)
Hourly Data Report for July 18, 2021
TIME
LST
Temp Definition
°C
Dew Point Definition
°C
Rel Hum Definition
%
Precip. Amount Definition
mm

Wind Dir Definition
10's deg

Wind Spd Definition
km/h
Visibility Definition
km
Stn Press Definition
kPa
Hmdx Definition


Wind Chill Definition


Weather Definition


00:00 20.2 17.8 86 0.0 LegendMM 4 16.1 100.90 26   Rain
01:00 19.7 18.2 91 0.0   0 16.1 100.92     LegendNANA
02:00 20.3 18.5 89 0.0 30 4 16.1 100.89 27   LegendNANA
03:00 20.0 16.9 82 0.0 29 11 16.1 100.89 25   LegendNANA
04:00 19.9 16.3 80 0.0 LegendMM 4 16.1 100.94     LegendNANA
05:00 19.6 16.3 81 0.0 28 8 16.1 100.98     LegendNANA
06:00 20.1 16.4 79 0.0   0 16.1 100.99 25   LegendNANA
07:00 20.6 17.2 80 0.0 30 5 16.1 101.01 26   LegendNANA
08:00 20.4 17.0 81 0.0 28 11 16.1 101.04 26   LegendNANA
09:00 21.2 18.0 82 0.0 23 8 16.1 101.04 27   LegendNANA
10:00 23.1 18.9 77 0.0 20 8 16.1 101.02 30   LegendNANA
11:00 22.8 19.6 82 0.0 19 13 16.1 101.00 30   LegendNANA
12:00 24.5 19.2 72 0.0 17 11 16.1 100.98 31   LegendNANA
13:00 24.2 18.9 72 0.0 18 9 16.1 100.95 31   LegendNANA
14:00 23.1 20.3 84 0.0 22 8 16.1 100.94 31   LegendNANA
15:00 23.4 19.5 79 0.0 24 5 16.1 100.91 31   LegendNANA
16:00 23.8 19.4 76 0.0 18 5 16.1 100.85 31   LegendNANA
17:00 29.1 15.4 43 0.0 33 18 16.1 100.83 33   LegendNANA
18:00 28.4 14.3 42 0.0 31 24 16.1 100.82 32   LegendNANA
19:00 27.3 14.6 45 0.0 33 11 16.1 100.87 31   LegendNANA
20:00 26.2 14.8 49 0.0 31 11 16.1 100.87 30   LegendNANA
21:00 25.2 14.0 49 0.0 32 11 16.1 100.88 29   LegendNANA
22:00 24.5 16.1 59 0.0 35 11 16.1 100.87 29   LegendNANA
23:00 23.8 16.7 64 0.0 33 15 16.1 100.89 29   LegendNANA

Notes on Data Quality.

Legend

  • E = Estimated
  • M = Missing
  • NA = Not Available*
  • [empty] = Indicates an unobserved value
Date modified: